Location: Keewatin
(47.4004°N, 93.0827°W)
Time: 06:39:04
(UTC+00:00)

Envisat - Pass Details

Date: 09 December 2019
Orbit: 764 x 766 km, 98.1° (Epoch: 20 January)

Event Time Altitude Azimuth Distance (km) Brightness Sun altitude
Rises 01:31:57 0° 214° (SSW) 3,222 6.7 -31.2°
Reaches altitude 10° 01:35:14 10° 236° (WSW) 2,303 6.1 -31.7°
Maximum altitude 01:38:10 15° 272° (W) 1,961 5.9 -32.2°
Drops below altitude 10° 01:41:07 10° 308° (NW) 2,313 6.1 -32.7°
Sets 01:44:26 0° 331° (NNW) 3,245 6.6 -33.3°
